This demonstration page uses our WeatherBlox Daily Observations layout. Learn more.

38.89511, -77.03637

Hourly Observations for March 21, 2015

Temp ( °F °C ) Dew Point ( °F °C ) Humidity (%) Winds ( mph kmh ) Pressure ( in mb ) Visibility ( mi km ) Precip ( " mm )
12:45 am 00:45 Cloudy 39 4 34 1 81 81 NNW 8 13 30.15 1021 10 16.09344 0 0
12:52 am 00:52 Cloudy 39 4 34 1 81 81 NNW 8 13 30.15 1021 10 16.09344 0 0
1:04 am 01:04 Cloudy 39 4 34 1 81 81 NNW 6 9 30.15 1021 10 16.09344 0 0
1:43 am 01:43 Cloudy 39 4 34 1 81 81 NNW 7 11 30.15 1021 10 16.09344 0 0
1:52 am 01:52 Cloudy 39 4 34 1 81 81 NNW 7 11 30.15 1021 10 16.09344 0 0
2:52 am 02:52 Cloudy 39 4 34 1 81 81 ENE 8 13 30.12 1020 9 14.484096 0 0
3:52 am 03:52 Cloudy 37 3 32 0 81 81 NNW 5 7 30.12 1020 9 14.484096 0 0
4:52 am 04:52 Partly Cloudy 37 3 30 -1 75 75 NNW 7 11 30.12 1020 8 12.874752 0 0
5:52 am 05:52 Partly Cloudy 36 2 30 -1 81 81 NNW 6 9 30.12 1020 8 12.874752 0 0
6:52 am 06:52 Partly Cloudy 36 2 30 -1 81 81 NNW 5 7 30.12 1020 8 12.874752 0 0
6:56 am 06:56 Partly Cloudy 36 2 30 -1 81 81 NNW 6 9 30.12 1020 8 12.874752 0 0
7:52 am 07:52 Hazy 36 2 30 -1 81 81 NNW 6 9 30.12 1020 6 9.656064 0 0
8:52 am 08:52 Mostly Cloudy 39 4 34 1 81 81 Calm 30.12 1020 7 11.265408 0 0
9:52 am 09:52 Cloudy 39 4 34 1 81 81 Calm 30.12 1020 7 11.265408 0 0
10:52 am 10:52 Cloudy with Haze 43 6 36 2 76 76 SSE 6 9 30.12 1020 6 9.656064 0 0
11:52 am 11:52 Cloudy with Haze 45 7 37 3 76 76 S 8 13 30.12 1020 6 9.656064 0 0
12:52 pm 12:52 Partly Cloudy 48 9 37 3 66 66 S 7 11 30.09 1019 10 16.09344 0 0
1:52 pm 13:52 Mostly Cloudy 54 12 41 5 63 63 S 10 17 30.03 1017 10 16.09344 0 0
2:52 pm 14:52 Partly Cloudy 55 13 41 5 59 59 S 12 19 30 1016 10 16.09344 0 0
3:52 pm 15:52 Mostly Sunny 61 16 43 6 52 52 S 10 17 29.97 1015 10 16.09344 0 0
4:52 pm 16:52 Mostly Sunny 61 16 41 5 48 48 SSE 12 19 29.94 1014 10 16.09344 0 0
5:52 pm 17:52 Partly Cloudy 61 16 43 6 52 52 S 12 19 29.94 1014 10 16.09344 0 0
6:52 pm 18:52 Mostly Cloudy 57 14 41 5 55 55 S 7 11 29.94 1014 10 16.09344 0 0
7:52 pm 19:52 Mostly Cloudy 59 15 39 4 48 48 SW 5 7 29.94 1014 10 16.09344 0 0
8:52 pm 20:52 Mostly Cloudy 55 13 41 5 59 59 Calm 29.97 1015 10 16.09344 0 0
9:44 pm 21:44 Partly Cloudy 57 14 39 4 51 51 W 5 7 29.97 1015 10 16.09344 0 0
9:52 pm 21:52 Partly Cloudy 59 15 39 4 48 48 NW 5 7 29.97 1015 10 16.09344 0 0
10:52 pm 22:52 Partly Cloudy 52 11 43 6 72 72 S 5 7 29.97 1015 10 16.09344 0 0
11:52 pm 23:52 Partly Cloudy 50 10 41 5 71 71 SW 5 7 29.97 1015 10 16.09344 0 0

Powered by AerisWeather